QPF
0.01 0.00 0.01 0.00 0.00 0.00 0.00 0.00 0.00 0.00 0.01 0.01 0.01 0.01 0.01 0.02 0.02 0.04 0.04 0.03 0.03 0.05 0.04 0.04 0.04 0.04 0.04 0.03 0.06 0.05 0.05 0.04 0.04 0.07 0.08 0.07 0.07 0.06 0.05 0.06 0.08 0.09 0.11
0.01 0.01 0.00 0.00 0.00 0.01 0.00 0.00 0.00 0.00 0.00 0.01 0.01 0.01 0.01 0.02 0.01 0.02 0.04 0.02 0.03 0.03 0.03 0.04 0.03 0.03 0.03 0.03 0.04 0.05 0.05 0.04 0.06 0.08 0.09 0.07 0.10 0.09 0.06 0.07 0.07 0.06 0.08
0.02 0.01 0.00 0.00 0.00 0.00 0.00 0.00 0.00 0.00 0.00 0.01 0.01 0.01 0.01 0.01 0.01 0.02 0.03 0.02 0.02 0.02 0.02 0.02 0.03 0.03 0.02 0.02 0.03 0.05 0.05 0.05 0.05 0.06 0.07 0.07 0.06 0.05 0.06 0.05 0.06 0.08 0.11
0.02 0.01 0.01 0.00 0.00 0.00 0.00 0.00 0.00 0.00 0.01 0.01 0.01 0.01 0.01 0.01 0.01 0.01 0.01 0.02 0.03 0.03 0.02 0.01 0.02 0.02 0.02 0.01 0.02 0.03 0.03 0.04 0.05 0.07 0.07 0.06 0.05 0.04 0.06 0.06 0.06 0.08 0.10
0.03 0.02 0.01 0.01 0.01 0.00 0.00 0.01 0.00 0.00 0.01 0.01 0.01 0.01 0.01 0.01 0.01 0.01 0.01 0.02 0.03 0.03 0.03 0.01 0.02 0.02 0.02 0.01 0.01 0.02 0.03 0.04 0.05 0.06 0.06 0.07 0.07 0.05 0.04 0.04 0.05 0.07 0.08
0.04 0.05 0.02 0.01 0.01 0.01 0.01 0.01 0.00 0.00 0.01 0.00 0.00 0.01 0.01 0.01 0.02 0.02 0.02 0.02 0.02 0.02 0.02 0.02 0.01 0.01 0.02 0.02 0.02 0.02 0.02 0.03 0.04 0.05 0.06 0.07 0.07 0.06 0.06 0.04 0.03 0.04 0.05
0.04 0.06 0.07 0.04 0.02 0.02 0.01 0.00 0.00 0.00 0.00 0.00 0.01 0.01 0.01 0.01 0.02 0.02 0.03 0.04 0.03 0.01 0.01 0.02 0.02 0.02 0.02 0.02 0.03 0.04 0.03 0.02 0.03 0.06 0.07 0.07 0.08 0.09 0.09 0.07 0.05 0.04 0.03
0.04 0.05 0.08 0.05 0.02 0.02 0.01 0.00 0.00 0.00 0.00 0.00 0.00 0.01 0.01 0.02 0.01 0.02 0.03 0.02 0.02 0.01 0.02 0.04 0.03 0.02 0.03 0.03 0.04 0.04 0.04 0.04 0.04 0.06 0.06 0.06 0.06 0.07 0.08 0.10 0.09 0.07 0.06
0.04 0.03 0.04 0.03 0.02 0.02 0.01 0.01 0.01 0.01 0.01 0.01 0.01 0.01 0.01 0.01 0.02 0.02 0.01 0.01 0.01 0.02 0.02 0.03 0.03 0.03 0.04 0.03 0.04 0.04 0.04 0.06 0.06 0.05 0.05 0.03 0.03 0.04 0.04 0.06 0.07 0.08 0.05
0.05 0.05 0.05 0.04 0.03 0.02 0.02 0.02 0.02 0.03 0.02 0.02 0.02 0.01 0.01 0.01 0.02 0.02 0.02 0.01 0.01 0.02 0.03 0.04 0.04 0.04 0.04 0.04 0.04 0.04 0.04 0.05 0.06 0.05 0.04 0.03 0.02 0.02 0.02 0.03 0.05 0.08 0.06
0.07 0.07 0.07 0.07 0.06 0.04 0.05 0.05 0.04 0.05 0.04 0.03 0.03 0.03 0.02 0.03 0.02 0.01 0.01 0.02 0.02 0.03 0.04 0.05 0.05 0.05 0.05 0.05 0.05 0.05 0.05 0.05 0.05 0.04 0.04 0.03 0.03 0.02 0.01 0.03 0.05 0.08 0.08
0.07 0.08 0.09 0.07 0.06 0.05 0.06 0.07 0.08 0.07 0.05 0.04 0.04 0.04 0.04 0.04 0.03 0.02 0.02 0.03 0.04 0.05 0.05 0.05 0.05 0.05 0.06 0.07 0.07 0.08 0.09 0.06 0.04 0.04 0.04 0.02 0.03 0.02 0.01 0.02 0.03 0.05 0.06
0.05 0.08 0.11 0.09 0.09 0.08 0.07 0.07 0.07 0.07 0.06 0.05 0.05 0.05 0.04 0.04 0.04 0.03 0.04 0.04 0.04 0.05 0.06 0.06 0.06 0.08 0.11 0.12 0.10 0.09 0.07 0.05 0.04 0.04 0.03 0.02 0.01 0.01 0.01 0.02 0.03 0.03 0.04
0.05 0.12 0.17 0.17 0.18 0.16 0.12 0.11 0.09 0.07 0.06 0.05 0.05 0.05 0.04 0.04 0.04 0.05 0.06 0.06 0.05 0.05 0.05 0.06 0.05 0.06 0.06 0.06 0.06 0.05 0.03 0.03 0.02 0.02 0.02 0.02 0.02 0.02 0.02 0.02 0.03 0.04 0.04
0.11 0.12 0.16 0.20 0.22 0.21 0.16 0.12 0.10 0.09 0.09 0.10 0.10 0.07 0.05 0.05 0.05 0.04 0.04 0.03 0.03 0.03 0.03 0.03 0.03 0.03 0.04 0.04 0.05 0.05 0.05 0.03 0.02 0.02 0.02 0.02 0.03 0.03 0.03 0.04 0.05 0.05 0.05
0.13 0.16 0.19 0.24 0.23 0.21 0.21 0.17 0.10 0.07 0.08 0.12 0.12 0.11 0.07 0.06 0.06 0.06 0.07 0.05 0.04 0.04 0.04 0.03 0.03 0.03 0.03 0.06 0.08 0.07 0.05 0.04 0.03 0.02 0.01 0.02 0.03 0.03 0.03 0.04 0.04 0.04 0.05
0.07 0.08 0.11 0.15 0.17 0.13 0.13 0.14 0.11 0.09 0.09 0.09 0.08 0.07 0.07 0.08 0.11 0.13 0.11 0.09 0.08 0.07 0.05 0.04 0.04 0.04 0.05 0.07 0.08 0.06 0.03 0.03 0.02 0.01 0.01 0.01 0.01 0.02 0.03 0.03 0.04 0.04 0.04
0.04 0.06 0.09 0.12 0.14 0.13 0.12 0.13 0.12 0.11 0.09 0.08 0.08 0.08 0.06 0.06 0.07 0.08 0.07 0.07 0.09 0.08 0.06 0.05 0.05 0.05 0.07 0.09 0.08 0.07 0.04 0.03 0.02 0.02 0.01 0.01 0.02 0.02 0.02 0.02 0.02 0.03 0.03
0.04 0.12 0.19 0.18 0.15 0.12 0.12 0.13 0.15 0.14 0.09 0.07 0.05 0.05 0.05 0.06 0.07 0.07 0.06 0.07 0.08 0.09 0.09 0.07 0.06 0.07 0.09 0.13 0.12 0.09 0.05 0.03 0.02 0.02 0.02 0.02 0.02 0.02 0.03 0.02 0.02 0.01 0.02
0.04 0.08 0.14 0.14 0.13 0.12 0.11 0.12 0.12 0.14 0.11 0.08 0.06 0.06 0.07 0.07 0.06 0.05 0.06 0.07 0.08 0.09 0.09 0.09 0.09 0.10 0.10 0.11 0.12 0.09 0.06 0.04 0.03 0.03 0.03 0.02 0.02 0.03 0.04 0.03 0.03 0.03 0.03
0.08 0.06 0.07 0.08 0.10 0.11 0.10 0.09 0.08 0.09 0.10 0.10 0.09 0.09 0.08 0.08 0.07 0.07 0.09 0.10 0.10 0.11 0.10 0.10 0.12 0.11 0.11 0.12 0.11 0.08 0.05 0.03 0.02 0.02 0.02 0.03 0.04 0.05 0.07 0.05 0.05 0.06 0.07
0.15 0.13 0.13 0.11 0.07 0.06 0.07 0.06 0.07 0.07 0.08 0.07 0.06 0.07 0.10 0.14 0.15 0.15 0.15 0.15 0.15 0.18 0.21 0.19 0.16 0.14 0.12 0.12 0.10 0.08 0.06 0.04 0.02 0.03 0.04 0.04 0.05 0.07 0.08 0.07 0.08 0.09 0.09
0.16 0.13 0.11 0.15 0.16 0.13 0.12 0.11 0.09 0.09 0.07 0.06 0.06 0.08 0.10 0.13 0.17 0.22 0.24 0.24 0.27 0.28 0.28 0.25 0.20 0.15 0.14 0.12 0.10 0.08 0.07 0.05 0.04 0.04 0.05 0.05 0.05 0.05 0.04 0.04 0.04 0.04 0.05
0.11 0.08 0.06 0.08 0.15 0.15 0.12 0.12 0.12 0.11 0.13 0.13 0.13 0.12 0.13 0.14 0.14 0.16 0.23 0.25 0.24 0.22 0.21 0.19 0.15 0.14 0.11 0.10 0.09 0.09 0.07 0.05 0.04 0.04 0.05 0.05 0.04 0.03 0.02 0.03 0.03 0.02 0.03
0.05 0.05 0.04 0.04 0.06 0.07 0.09 0.10 0.09 0.08 0.11 0.14 0.17 0.18 0.18 0.16 0.13 0.12 0.11 0.11 0.13 0.16 0.14 0.13 0.13 0.12 0.09 0.07 0.07 0.08 0.08 0.07 0.06 0.06 0.07 0.07 0.06 0.05 0.04 0.04 0.03 0.02 0.02
0.02 0.03 0.03 0.03 0.03 0.03 0.04 0.06 0.08 0.09 0.10 0.10 0.12 0.14 0.15 0.14 0.12 0.11 0.10 0.10 0.08 0.08 0.08 0.07 0.07 0.05 0.05 0.07 0.08 0.10 0.10 0.09 0.09 0.07 0.06 0.07 0.08 0.08 0.07 0.05 0.04 0.02 0.01
MSLP
1009.18 1009.56 1009.90 1010.19 1010.41 1010.57 1010.69 1010.81 1010.97 1011.16 1011.41 1011.69 1011.98 1012.23 1012.43 1012.55 1012.60 1012.60 1012.60 1012.63 1012.72 1012.92 1013.22 1013.61 1014.06 1014.53 1015.00 1015.43 1015.80 1016.11 1016.37 1016.58 1016.76 1016.91 1017.03 1017.11 1017.14 1017.11 1017.02 1016.88 1016.71 1016.54 1016.41
1008.83 1009.31 1009.75 1010.10 1010.34 1010.48 1010.58 1010.67 1010.80 1011.00 1011.28 1011.60 1011.94 1012.25 1012.48 1012.62 1012.67 1012.65 1012.61 1012.60 1012.67 1012.84 1013.13 1013.52 1013.97 1014.45 1014.90 1015.31 1015.65 1015.93 1016.15 1016.34 1016.52 1016.68 1016.83 1016.94 1017.01 1017.00 1016.92 1016.76 1016.54 1016.31 1016.10
1008.31 1008.92 1009.48 1009.91 1010.21 1010.38 1010.48 1010.57 1010.69 1010.90 1011.19 1011.55 1011.93 1012.27 1012.53 1012.68 1012.72 1012.68 1012.61 1012.57 1012.61 1012.76 1013.03 1013.41 1013.85 1014.31 1014.74 1015.12 1015.42 1015.65 1015.84 1016.01 1016.18 1016.36 1016.53 1016.69 1016.80 1016.84 1016.78 1016.63 1016.41 1016.15 1015.89
1007.66 1008.39 1009.06 1009.60 1009.98 1010.22 1010.35 1010.46 1010.60 1010.82 1011.12 1011.50 1011.90 1012.27 1012.54 1012.70 1012.73 1012.68 1012.59 1012.52 1012.53 1012.66 1012.91 1013.27 1013.69 1014.13 1014.53 1014.87 1015.13 1015.33 1015.49 1015.64 1015.80 1015.99 1016.20 1016.40 1016.56 1016.65 1016.64 1016.53 1016.33 1016.07 1015.80
1006.92 1007.73 1008.50 1009.15 1009.63 1009.94 1010.13 1010.28 1010.45 1010.68 1011.01 1011.40 1011.81 1012.19 1012.48 1012.64 1012.67 1012.61 1012.50 1012.42 1012.41 1012.52 1012.75 1013.09 1013.49 1013.90 1014.27 1014.58 1014.82 1014.99 1015.12 1015.25 1015.41 1015.61 1015.84 1016.08 1016.29 1016.43 1016.48 1016.42 1016.26 1016.04 1015.80
1006.14 1007.00 1007.84 1008.57 1009.13 1009.52 1009.78 1009.98 1010.18 1010.44 1010.78 1011.19 1011.61 1012.00 1012.29 1012.46 1012.50 1012.45 1012.34 1012.26 1012.24 1012.34 1012.55 1012.87 1013.24 1013.63 1013.98 1014.26 1014.47 1014.62 1014.74 1014.86 1015.02 1015.22 1015.47 1015.73 1015.98 1016.17 1016.27 1016.27 1016.18 1016.02 1015.83
1005.40 1006.25 1007.12 1007.90 1008.52 1008.97 1009.28 1009.52 1009.76 1010.05 1010.41 1010.83 1011.27 1011.67 1011.98 1012.17 1012.23 1012.19 1012.11 1012.03 1012.02 1012.11 1012.30 1012.60 1012.95 1013.31 1013.63 1013.89 1014.09 1014.22 1014.33 1014.45 1014.60 1014.81 1015.06 1015.33 1015.60 1015.83 1015.98 1016.04 1016.02 1015.94 1015.83
1004.76 1005.56 1006.41 1007.19 1007.82 1008.30 1008.65 1008.93 1009.20 1009.52 1009.90 1010.34 1010.79 1011.21 1011.55 1011.76 1011.86 1011.85 1011.80 1011.74 1011.74 1011.83 1012.01 1012.28 1012.61 1012.93 1013.23 1013.48 1013.65 1013.78 1013.89 1014.00 1014.15 1014.35 1014.60 1014.87 1015.15 1015.39 1015.58 1015.69 1015.74 1015.75 1015.73
1004.30 1005.02 1005.80 1006.53 1007.14 1007.61 1007.96 1008.25 1008.54 1008.88 1009.28 1009.73 1010.20 1010.65 1011.01 1011.27 1011.41 1011.45 1011.43 1011.41 1011.43 1011.52 1011.69 1011.93 1012.22 1012.52 1012.79 1013.01 1013.17 1013.29 1013.39 1013.50 1013.65 1013.84 1014.07 1014.33 1014.60 1014.85 1015.06 1015.22 1015.33 1015.42 1015.50
1004.10 1004.72 1005.39 1006.03 1006.56 1006.98 1007.30 1007.58 1007.87 1008.21 1008.61 1009.08 1009.56 1010.03 1010.42 1010.72 1010.90 1011.00 1011.03 1011.04 1011.09 1011.18 1011.35 1011.57 1011.82 1012.08 1012.32 1012.51 1012.66 1012.77 1012.87 1012.97 1013.11 1013.29 1013.51 1013.75 1014.01 1014.25 1014.47 1014.65 1014.82 1014.98 1015.15
1004.24 1004.73 1005.26 1005.77 1006.18 1006.51 1006.77 1007.00 1007.26 1007.59 1007.98 1008.44 1008.93 1009.40 1009.82 1010.15 1010.37 1010.51 1010.60 1010.66 1010.73 1010.84 1011.00 1011.20 1011.43 1011.65 1011.86 1012.02 1012.15 1012.25 1012.35 1012.45 1012.58 1012.75 1012.95 1013.18 1013.41 1013.65 1013.87 1014.07 1014.27 1014.48 1014.72
1004.72 1005.08 1005.46 1005.80 1006.08 1006.28 1006.45 1006.61 1006.82 1007.10 1007.46 1007.89 1008.36 1008.82 1009.24 1009.58 1009.84 1010.02 1010.15 1010.25 1010.36 1010.50 1010.67 1010.86 1011.07 1011.27 1011.45 1011.59 1011.70 1011.79 1011.88 1011.98 1012.12 1012.28 1012.47 1012.69 1012.91 1013.13 1013.35 1013.56 1013.78 1014.02 1014.31
1005.54 1005.76 1005.98 1006.15 1006.27 1006.33 1006.38 1006.45 1006.58 1006.80 1007.10 1007.47 1007.89 1008.31 1008.69 1009.03 1009.29 1009.50 1009.68 1009.83 1009.99 1010.16 1010.35 1010.56 1010.76 1010.95 1011.11 1011.24 1011.34 1011.43 1011.52 1011.63 1011.76 1011.93 1012.12 1012.33 1012.55 1012.76 1012.98 1013.19 1013.42 1013.68 1013.97
1006.62 1006.71 1006.76 1006.76 1006.71 1006.63 1006.56 1006.52 1006.56 1006.69 1006.91 1007.19 1007.53 1007.87 1008.20 1008.49 1008.75 1008.97 1009.17 1009.37 1009.58 1009.80 1010.03 1010.27 1010.49 1010.69 1010.85 1010.98 1011.08 1011.17 1011.27 1011.39 1011.54 1011.72 1011.92 1012.14 1012.36 1012.57 1012.79 1013.00 1013.23 1013.48 1013.77
1007.84 1007.80 1007.70 1007.54 1007.34 1007.13 1006.93 1006.79 1006.73 1006.76 1006.87 1007.05 1007.27 1007.51 1007.75 1007.97 1008.19 1008.41 1008.63 1008.86 1009.12 1009.41 1009.69 1009.98 1010.24 1010.46 1010.64 1010.78 1010.90 1011.01 1011.12 1011.26 1011.42 1011.62 1011.85 1012.08 1012.32 1012.54 1012.76 1012.97 1013.19 1013.43 1013.70
1009.04 1008.89 1008.66 1008.37 1008.04 1007.72 1007.43 1007.19 1007.03 1006.96 1006.95 1007.01 1007.10 1007.21 1007.33 1007.47 1007.63 1007.81 1008.04 1008.30 1008.61 1008.95 1009.30 1009.64 1009.95 1010.22 1010.43 1010.60 1010.74 1010.87 1011.01 1011.17 1011.36 1011.59 1011.84 1012.10 1012.36 1012.60 1012.83 1013.05 1013.26 1013.49 1013.73
1010.08 1009.83 1009.50 1009.11 1008.70 1008.30 1007.94 1007.63 1007.40 1007.22 1007.11 1007.03 1006.99 1006.97 1006.96 1006.99 1007.07 1007.21 1007.42 1007.70 1008.04 1008.43 1008.84 1009.24 1009.60 1009.91 1010.17 1010.38 1010.55 1010.70 1010.87 1011.06 1011.28 1011.54 1011.82 1012.11 1012.39 1012.66 1012.91 1013.14 1013.36 1013.57 1013.79
1010.82 1010.50 1010.10 1009.66 1009.21 1008.77 1008.37 1008.03 1007.74 1007.50 1007.29 1007.11 1006.93 1006.78 1006.65 1006.57 1006.56 1006.63 1006.80 1007.07 1007.43 1007.85 1008.29 1008.74 1009.15 1009.50 1009.80 1010.04 1010.25 1010.44 1010.63 1010.85 1011.10 1011.39 1011.70 1012.02 1012.34 1012.64 1012.91 1013.16 1013.38 1013.60 1013.81
1011.21 1010.84 1010.41 1009.96 1009.50 1009.07 1008.68 1008.34 1008.03 1007.75 1007.47 1007.20 1006.92 1006.65 1006.41 1006.22 1006.12 1006.12 1006.24 1006.48 1006.82 1007.24 1007.69 1008.16 1008.59 1008.98 1009.30 1009.58 1009.81 1010.03 1010.26 1010.51 1010.79 1011.10 1011.45 1011.80 1012.14 1012.47 1012.77 1013.04 1013.29 1013.51 1013.73
1011.25 1010.87 1010.44 1010.01 1009.58 1009.19 1008.84 1008.52 1008.23 1007.94 1007.63 1007.31 1006.96 1006.60 1006.27 1005.99 1005.80 1005.72 1005.77 1005.96 1006.25 1006.64 1007.08 1007.53 1007.96 1008.36 1008.70 1008.99 1009.25 1009.50 1009.75 1010.03 1010.34 1010.69 1011.06 1011.44 1011.81 1012.16 1012.49 1012.79 1013.07 1013.32 1013.56
1011.03 1010.66 1010.26 1009.86 1009.49 1009.16 1008.87 1008.60 1008.34 1008.07 1007.77 1007.42 1007.04 1006.63 1006.23 1005.88 1005.62 1005.46 1005.44 1005.54 1005.77 1006.10 1006.48 1006.90 1007.30 1007.68 1008.02 1008.33 1008.61 1008.88 1009.16 1009.47 1009.81 1010.18 1010.57 1010.98 1011.38 1011.76 1012.11 1012.44 1012.75 1013.04 1013.32
1010.68 1010.32 1009.95 1009.60 1009.29 1009.03 1008.80 1008.59 1008.39 1008.15 1007.87 1007.54 1007.15 1006.72 1006.29 1005.89 1005.56 1005.34 1005.23 1005.25 1005.40 1005.64 1005.95 1006.30 1006.66 1007.01 1007.33 1007.64 1007.94 1008.23 1008.55 1008.89 1009.25 1009.65 1010.07 1010.49 1010.91 1011.31 1011.69 1012.05 1012.39 1012.72 1013.04
1010.31 1009.96 1009.63 1009.33 1009.07 1008.86 1008.69 1008.54 1008.39 1008.20 1007.95 1007.65 1007.27 1006.85 1006.41 1005.98 1005.61 1005.32 1005.14 1005.07 1005.12 1005.27 1005.49 1005.77 1006.06 1006.37 1006.68 1006.99 1007.30 1007.62 1007.96 1008.33 1008.73 1009.15 1009.59 1010.03 1010.46 1010.88 1011.29 1011.67 1012.05 1012.42 1012.79
1010.02 1009.69 1009.37 1009.10 1008.88 1008.71 1008.58 1008.47 1008.36 1008.21 1008.00 1007.73 1007.38 1006.98 1006.54 1006.10 1005.70 1005.36 1005.11 1004.96 1004.91 1004.97 1005.10 1005.30 1005.54 1005.80 1006.09 1006.40 1006.72 1007.07 1007.44 1007.84 1008.27 1008.71 1009.17 1009.63 1010.08 1010.52 1010.94 1011.35 1011.76 1012.16 1012.58
1009.87 1009.53 1009.23 1008.97 1008.76 1008.60 1008.49 1008.40 1008.31 1008.18 1008.01 1007.76 1007.44 1007.05 1006.63 1006.18 1005.76 1005.38 1005.07 1004.85 1004.73 1004.70 1004.75 1004.88 1005.07 1005.30 1005.57 1005.88 1006.22 1006.60 1007.00 1007.43 1007.88 1008.34 1008.82 1009.29 1009.75 1010.20 1010.64 1011.08 1011.52 1011.96 1012.42
1009.83 1009.49 1009.18 1008.91 1008.70 1008.54 1008.42 1008.33 1008.24 1008.12 1007.95 1007.71 1007.41 1007.04 1006.62 1006.17 1005.73 1005.32 1004.97 1004.70 1004.51 1004.41 1004.41 1004.49 1004.64 1004.85 1005.12 1005.43 1005.79 1006.18 1006.61 1007.06 1007.53 1008.01 1008.49 1008.97 1009.44 1009.90 1010.36 1010.82 1011.29 1011.77 1012.27
Thickness
5825 5824 5822 5818 5813 5808 5804 5800 5796 5793 5790 5785 5780 5776 5773 5774 5774 5774 5773 5771 5770 5768 5767 5765 5763 5761 5759 5757 5757 5755 5753 5751 5751 5748 5746 5749 5753 5754 5755 5755 5755 5754 5753
5823 5823 5821 5818 5814 5810 5807 5803 5800 5797 5794 5790 5786 5782 5779 5777 5776 5776 5774 5773 5771 5769 5768 5765 5763 5762 5759 5757 5756 5754 5751 5750 5750 5745 5740 5737 5741 5749 5755 5755 5754 5754 5753
5826 5824 5822 5820 5817 5813 5811 5809 5804 5801 5798 5794 5789 5785 5780 5777 5775 5774 5774 5774 5772 5770 5768 5767 5764 5762 5760 5757 5756 5754 5751 5747 5748 5749 5742 5735 5732 5739 5747 5751 5753 5752 5751
5833 5828 5826 5822 5820 5818 5817 5813 5808 5804 5800 5797 5791 5786 5780 5775 5776 5776 5775 5775 5773 5771 5769 5767 5765 5763 5761 5759 5757 5757 5754 5750 5746 5747 5748 5745 5743 5737 5737 5744 5748 5749 5749
5836 5833 5830 5828 5825 5823 5819 5815 5810 5806 5802 5799 5794 5789 5785 5782 5780 5778 5776 5775 5774 5773 5771 5768 5766 5764 5761 5760 5758 5757 5755 5753 5749 5747 5746 5745 5744 5742 5736 5734 5739 5743 5746
5838 5836 5834 5830 5826 5824 5820 5816 5810 5806 5804 5800 5796 5792 5788 5784 5780 5777 5775 5774 5773 5772 5771 5770 5767 5765 5762 5760 5759 5757 5755 5753 5751 5749 5747 5744 5742 5739 5737 5733 5734 5736 5741
5838 5834 5830 5827 5825 5822 5820 5816 5811 5806 5804 5801 5797 5794 5791 5787 5782 5779 5777 5774 5772 5771 5771 5770 5768 5765 5763 5761 5759 5757 5755 5753 5751 5750 5748 5747 5745 5744 5741 5736 5733 5733 5736
5839 5836 5834 5831 5827 5824 5820 5816 5812 5808 5805 5802 5799 5796 5792 5789 5785 5783 5780 5777 5775 5773 5773 5771 5768 5766 5764 5762 5759 5756 5754 5753 5751 5750 5749 5747 5746 5745 5743 5739 5734 5728 5729
5838 5834 5833 5832 5829 5825 5822 5819 5813 5809 5806 5803 5799 5795 5792 5789 5786 5784 5781 5779 5776 5775 5773 5770 5768 5765 5763 5761 5758 5755 5753 5752 5750 5749 5748 5747 5746 5745 5744 5742 5738 5730 5723
5833 5832 5831 5830 5828 5826 5822 5819 5815 5811 5807 5804 5800 5796 5792 5790 5788 5784 5781 5778 5776 5774 5772 5769 5767 5765 5762 5760 5757 5754 5752 5750 5748 5747 5746 5745 5745 5744 5743 5741 5739 5735 5729
5829 5828 5829 5829 5826 5823 5818 5815 5812 5808 5805 5802 5799 5796 5792 5790 5787 5784 5781 5779 5776 5774 5772 5769 5766 5763 5760 5758 5755 5752 5750 5748 5746 5746 5744 5743 5743 5741 5740 5739 5737 5734 5731
5823 5822 5824 5822 5819 5816 5813 5811 5808 5805 5803 5801 5798 5795 5792 5789 5786 5783 5781 5779 5776 5774 5772 5769 5765 5762 5759 5756 5754 5750 5748 5746 5743 5743 5742 5741 5741 5738 5737 5736 5734 5732 5730
5814 5813 5814 5813 5812 5809 5807 5806 5804 5802 5801 5799 5795 5792 5789 5786 5783 5781 5779 5777 5774 5771 5769 5766 5763 5759 5756 5753 5751 5748 5746 5744 5742 5741 5739 5738 5737 5735 5734 5733 5731 5730 5728
5805 5803 5802 5803 5804 5803 5801 5799 5799 5797 5796 5794 5790 5787 5785 5783 5781 5778 5776 5774 5772 5768 5766 5763 5761 5758 5754 5751 5749 5746 5744 5742 5740 5739 5737 5736 5734 5733 5731 5729 5727 5725 5722
5795 5795 5794 5793 5795 5793 5793 5793 5793 5792 5790 5786 5784 5783 5783 5781 5777 5774 5773 5771 5769 5766 5763 5760 5758 5755 5752 5750 5746 5744 5741 5738 5736 5735 5734 5733 5732 5732 5729 5727 5723 5721 5717
5785 5786 5787 5786 5785 5784 5783 5782 5784 5785 5784 5779 5777 5777 5776 5774 5771 5769 5767 5766 5764 5763 5759 5756 5753 5751 5750 5747 5744 5741 5738 5735 5732 5731 5730 5730 5728 5727 5726 5724 5722 5719 5714
5778 5778 5779 5777 5776 5776 5776 5774 5775 5775 5774 5772 5771 5770 5769 5767 5765 5764 5760 5758 5758 5756 5754 5751 5748 5746 5745 5743 5740 5737 5734 5731 5728 5726 5724 5723 5723 5721 5719 5717 5716 5714 5712
5772 5771 5771 5771 5769 5769 5770 5769 5768 5766 5765 5764 5764 5763 5762 5760 5758 5756 5754 5752 5751 5750 5748 5747 5744 5741 5740 5738 5734 5731 5728 5725 5723 5721 5719 5717 5716 5715 5712 5709 5707 5705 5704
5765 5765 5765 5764 5762 5762 5763 5763 5761 5760 5758 5757 5757 5758 5756 5753 5751 5749 5748 5747 5745 5744 5742 5740 5739 5736 5734 5732 5728 5725 5722 5718 5717 5716 5714 5711 5709 5708 5705 5701 5698 5697 5696
5753 5754 5755 5754 5753 5754 5754 5753 5750 5748 5747 5747 5748 5749 5748 5746 5744 5743 5742 5741 5739 5737 5735 5733 5732 5729 5727 5725 5721 5719 5715 5711 5709 5708 5707 5705 5703 5701 5699 5695 5691 5688 5687
5742 5743 5742 5740 5741 5743 5743 5739 5737 5737 5738 5740 5741 5741 5740 5738 5738 5736 5734 5732 5730 5729 5726 5724 5722 5720 5718 5715 5713 5711 5708 5705 5702 5700 5699 5698 5696 5694 5692 5689 5686 5683 5681
5729 5729 5727 5726 5729 5732 5730 5728 5726 5729 5729 5729 5729 5729 5729 5730 5729 5726 5724 5723 5721 5719 5716 5714 5711 5711 5709 5707 5704 5701 5700 5699 5695 5693 5691 5690 5688 5686 5683 5681 5679 5677 5673
5716 5717 5717 5716 5716 5718 5718 5714 5716 5717 5717 5717 5717 5718 5717 5717 5716 5714 5713 5712 5710 5707 5705 5703 5701 5700 5700 5698 5696 5693 5691 5690 5688 5686 5684 5681 5679 5677 5674 5673 5671 5667 5664
5702 5704 5703 5703 5702 5704 5704 5704 5704 5705 5704 5704 5705 5705 5704 5702 5702 5703 5703 5702 5699 5697 5696 5693 5691 5691 5690 5688 5686 5684 5682 5680 5678 5676 5674 5671 5668 5667 5664 5662 5659 5656 5654
5691 5691 5690 5690 5690 5691 5692 5693 5693 5693 5693 5694 5694 5695 5695 5693 5691 5691 5690 5691 5689 5689 5688 5686 5684 5681 5679 5679 5678 5675 5673 5672 5669 5666 5663 5660 5657 5654 5651 5650 5648 5645 5643
5679 5678 5678 5678 5679 5679 5680 5681 5682 5682 5682 5682 5683 5683 5683 5682 5680 5679 5677 5678 5677 5677 5678 5678 5675 5674 5672 5671 5669 5667 5665 5663 5660 5655 5652 5649 5646 5643 5641 5638 5636 5634 5632